Location: Cueva de Ratón
(10.1013°N, 67.6606°W)
Time: 01:02:09
(UTC+00:00)

Meteor 1-10 Rocket - Pass Details

Date: 02 December 2023
Orbit: 835 x 910 km, 81.3° (Epoch: 20 February)

Event Time Altitude Azimuth Distance (km) Brightness Sun altitude
Rises 23:40:14 0° 177° (S) 3,457 7.6 -22.2°
Reaches altitude 10° 23:42:40 10° 173° (S) 2,530 6.8 -22.8°
Maximum altitude 23:48:21 61° 94° (E) 1,008 4.2 -24.1°
Enters shadow 23:49:00 57° 64° (ENE) 1,044 4.3 -24.3°
